Location: Byszew
(52.1813°N, 19.2693°E)
Time: 12:52:35
(UTC+00:00)

FALCON 9 DEB - Pass Details

Date: 03 March 2021
Orbit: 371 x 387 km, 53.0° (Epoch: 13 April)

Event Time Altitude Azimuth Distance (km) Brightness Sun altitude
Rises 17:44:13 0° 274° (W) 2,292 8.9 -12.7°
Reaches altitude 10° 17:46:17 10° 276° (W) 1,436 7.3 -13.0°
Maximum altitude 17:49:30 74° 1° (N) 415 3.0 -13.5°
Enters shadow 17:51:02 28° 83° (E) 779 3.8 -13.8°
